Change the Weather History Date:

Thursday, January 24, 2013

  Actual Average (KTRI) Record (KTRI)
Temperature  
Mean Temperature 29 °F 35 °F  
Max Temperature 38 °F 46 °F 78 °F (1972)
Min Temperature 20 °F 25 °F -8 °F (1963)
Degree Days  
Heating Degree Days 36 30  
Month to date heating degree days 720  
Since 1 July heating degree days 2449  
Cooling Degree Days 0 0  
Month to date cooling degree days 0  
Year to date cooling degree days 0  
Moisture  
Dew Point 14 °F    
Average Humidity 56    
Maximum Humidity 74    
Minimum Humidity 37    
Precipitation  
Precipitation 0.00 in 0.11 in 1.00 in (2010)
Month to date precipitation 2.60  
Year to date precipitation 2.60  
Snow  
Snow 0.00 in 0.20 in - ()
Month to date snowfall 3.7  
Since 1 July snowfall 6.4  
Snow Depth -    
Sea Level Pressure  
Sea Level Pressure 30.23 in    
Wind  
Wind Speed 9 mph (NNW)    
Max Wind Speed 17 mph    
Max Gust Speed 25 mph    
Visibility 10 miles    
Events      
T = Trace of Precipitation, MM = Missing Value Source: NWS Daily Summary

Daily Weather History Graph

Daily Weather History Graph

Search for Another Location

Airport or City:

Trip Planner

Search our weather history database for the weather conditions in past years. The results will help you decide how hot, cold, wet, or windy it might be!

Date:

Astronomy

Jan. 24, 2013 Rise Set
Actual Time 7:35 AM EST 5:45 PM EST
Civil Twilight 7:07 AM EST 6:13 PM EST
Nautical Twilight 6:36 AM EST 6:44 PM EST
Astronomical Twilight 6:05 AM EST 7:15 PM EST
Moon 3:47 PM EST (1/24) 5:31 AM EST (1/24)
Length of Visible Light 11h 05m
Length of Day
10h 10m
Waxing Gibbous, 94% of the Moon is Illuminated
Jan 24
Waxing Gibbous
Jan 26
Full
Feb 3
Last Quarter
Feb 10
New
Feb 17
First Quarter

Hourly Weather History & Observations

Time (EST) Temp. Windchill Dew Point Humidity Pressure Visibility Wind Dir Wind Speed Gust Speed Precip Events Conditions
12:15 AM 32.9 °F 25.3 °F 24.3 °F 71% 30.02 in 10.0 mi West 9.2 mph - N/A   Overcast
12:35 AM 32.9 °F 26.7 °F 24.4 °F 71% 30.01 in 10.0 mi West 6.9 mph - N/A   Overcast
12:55 AM 33.1 °F 26.9 °F 24.6 °F 71% 30.01 in 10.0 mi West 6.9 mph - N/A   Overcast
1:15 AM 33.6 °F 27.5 °F 25.0 °F 71% 30.01 in 10.0 mi West 6.9 mph - N/A   Overcast
1:35 AM 34.2 °F 26.2 °F 25.3 °F 70% 30.01 in 10.0 mi West 10.4 mph - N/A   Overcast
1:55 AM 34.3 °F 27.7 °F 25.7 °F 71% 30.01 in 10.0 mi West 8.1 mph - N/A   Overcast
2:15 AM 34.3 °F 27.7 °F 26.2 °F 72% 30.01 in 10.0 mi West 8.1 mph - N/A   Overcast
2:35 AM 35.2 °F 28.1 °F 27.7 °F 74% 30.00 in 10.0 mi West 9.2 mph - N/A   Overcast
2:55 AM 37.8 °F 29.4 °F 29.3 °F 72% 30.01 in 10.0 mi WNW 13.8 mph - N/A   Overcast
3:15 AM 38.3 °F 30.1 °F 29.5 °F 71% 30.02 in 10.0 mi WNW 13.8 mph 19.6 mph N/A   Overcast
3:35 AM 38.1 °F 32.9 °F 29.3 °F 71% 30.02 in 10.0 mi NW 6.9 mph - N/A   Overcast
3:55 AM 37.6 °F 30.5 °F 28.8 °F 70% 30.03 in 10.0 mi NW 10.4 mph 21.9 mph N/A   Overcast
4:15 AM 36.9 °F 30.1 °F 27.7 °F 69% 30.03 in 10.0 mi NW 9.2 mph - N/A   Overcast
4:35 AM 36.5 °F 29.2 °F 26.2 °F 66% 30.05 in 10.0 mi NW 10.4 mph 19.6 mph N/A   Overcast
4:55 AM 35.8 °F 27.8 °F 24.6 °F 64% 30.06 in 10.0 mi NNW 11.5 mph 20.7 mph N/A   Overcast
5:15 AM 33.8 °F 24.8 °F 23.4 °F 66% 30.07 in 10.0 mi NNW 12.7 mph 20.7 mph N/A   Overcast
5:35 AM 32.4 °F 26.0 °F 22.6 °F 67% 30.08 in 10.0 mi NNW 6.9 mph - N/A   Mostly Cloudy
5:55 AM 32.0 °F 21.2 °F 21.2 °F 64% 30.09 in 10.0 mi North 16.1 mph 24.2 mph N/A   Scattered Clouds
6:15 AM 30.7 °F 20.9 °F 19.6 °F 63% 30.11 in 10.0 mi NNW 12.7 mph 21.9 mph N/A   Clear
6:35 AM 30.2 °F 21.3 °F 19.0 °F 63% 30.12 in 10.0 mi NNW 10.4 mph 18.4 mph N/A   Clear
6:55 AM 29.8 °F 21.5 °F 18.7 °F 63% 30.14 in 10.0 mi NNW 9.2 mph 17.3 mph N/A   Clear
7:15 AM 29.7 °F 20.7 °F 18.9 °F 64% 30.15 in 10.0 mi NNW 10.4 mph 20.7 mph N/A   Scattered Clouds
7:35 AM 29.3 °F 17.7 °F 18.5 °F 64% 30.16 in 10.0 mi NNW 16.1 mph 21.9 mph N/A   Mostly Cloudy
8:15 AM 28.4 °F 16.2 °F 16.5 °F 61% 30.18 in 10.0 mi NNW 17.3 mph 24.2 mph N/A   Mostly Cloudy
8:35 AM 28.0 °F 16.5 °F 17.1 °F 63% 30.20 in 10.0 mi NNW 15.0 mph 21.9 mph N/A   Mostly Cloudy
8:55 AM 27.5 °F 15.0 °F 17.4 °F 66% 30.23 in 10.0 mi North 17.3 mph 25.3 mph N/A   Overcast
9:15 AM 27.0 °F 16.1 °F 15.4 °F 62% 30.25 in 10.0 mi North 12.7 mph 23.0 mph N/A   Overcast
9:35 AM 25.5 °F 16.2 °F 13.5 °F 60% 30.27 in 10.0 mi NNW 9.2 mph 20.7 mph N/A   Mostly Cloudy
9:55 AM 25.7 °F 16.4 °F 11.8 °F 56% 30.28 in 10.0 mi NNW 9.2 mph 16.1 mph N/A   Mostly Cloudy
10:15 AM 25.0 °F 17.1 °F 11.1 °F 56% 30.30 in 10.0 mi North 6.9 mph - N/A   Mostly Cloudy
10:35 AM 25.7 °F 18.0 °F 11.3 °F 55% 30.30 in 10.0 mi North 6.9 mph - N/A   Mostly Cloudy
11:15 AM 25.7 °F 16.4 °F 11.3 °F 55% 30.31 in 10.0 mi North 9.2 mph - N/A   Scattered Clouds
11:35 AM 24.6 °F 17.7 °F 10.4 °F 55% 30.32 in 10.0 mi NNE 5.8 mph - N/A   Clear
11:55 AM 24.8 °F 16.1 °F 10.4 °F 54% 30.32 in 10.0 mi North 8.1 mph 16.1 mph N/A   Scattered Clouds
12:15 PM 25.0 °F 18.1 °F 9.0 °F 51% 30.33 in 10.0 mi NNE 5.8 mph 18.4 mph N/A   Clear
12:35 PM 25.5 °F 16.2 °F 6.4 °F 44% 30.32 in 10.0 mi North 9.2 mph 19.6 mph N/A   Clear
12:55 PM 25.9 °F 17.4 °F 7.5 °F 46% 30.33 in 10.0 mi North 8.1 mph - N/A   Clear
1:15 PM 26.1 °F 20.5 °F 5.4 °F 41% 30.33 in 10.0 mi North 4.6 mph - N/A   Clear
1:35 PM 26.4 °F 17.3 °F 4.1 °F 39% 30.33 in 10.0 mi North 9.2 mph - N/A   Clear
1:55 PM 27.0 °F 16.7 °F 4.3 °F 38% 30.32 in 10.0 mi NNW 11.5 mph - N/A   Clear
2:15 PM 26.6 °F 18.2 °F 3.6 °F 37% 30.32 in 10.0 mi North 8.1 mph - N/A   Clear
2:35 PM 26.4 °F 18.9 °F 3.4 °F 37% 30.32 in 10.0 mi North 6.9 mph - N/A   Clear
2:55 PM 27.1 °F 19.7 °F 3.7 °F 37% 30.32 in 10.0 mi NNE 6.9 mph - N/A   Clear
3:15 PM 27.3 °F 17.7 °F 3.9 °F 37% 30.33 in 10.0 mi NNW 10.4 mph - N/A   Clear
3:35 PM 27.5 °F 20.2 °F 4.6 °F 38% 30.33 in 10.0 mi NNW 6.9 mph - N/A   Clear
3:55 PM 27.3 °F 20.9 °F 4.8 °F 38% 30.34 in 10.0 mi NNW 5.8 mph - N/A   Clear
4:15 PM 26.6 °F 19.1 °F 3.6 °F 37% 30.35 in 10.0 mi North 6.9 mph - N/A   Clear
4:35 PM 26.4 °F 22.4 °F 3.9 °F 38% 30.35 in 10.0 mi North 3.5 mph - N/A   Clear
5:15 PM 25.7 °F 20.1 °F 4.8 °F 41% 30.36 in 10.0 mi North 4.6 mph - N/A   Clear
5:35 PM 25.5 °F 21.3 °F 5.2 °F 42% 30.36 in 10.0 mi North 3.5 mph - N/A   Clear
5:55 PM 24.8 °F 19.1 °F 5.5 °F 44% 30.35 in 10.0 mi North 4.6 mph - N/A   Clear
6:35 PM 24.3 °F - 5.5 °F 45% 30.38 in 10.0 mi Calm Calm - N/A   Clear
6:55 PM 23.7 °F - 5.0 °F 45% 30.38 in 10.0 mi Calm Calm - N/A   Clear
7:15 PM 22.8 °F - 7.3 °F 52% 30.39 in 10.0 mi Calm Calm - N/A   Clear
7:35 PM 23.0 °F - 4.6 °F 45% 30.38 in 10.0 mi Calm Calm - N/A   Clear
7:55 PM 21.2 °F - 9.5 °F 61% 30.39 in 10.0 mi Calm Calm - N/A   Clear
8:15 PM 21.0 °F - 10.0 °F 63% 30.39 in 10.0 mi Calm Calm - N/A   Clear
8:35 PM 20.3 °F - 7.9 °F 59% 30.39 in 10.0 mi Calm Calm - N/A   Clear
8:55 PM 21.2 °F 14.9 °F 6.3 °F 53% 30.39 in 10.0 mi East 4.6 mph - N/A   Clear
9:15 PM 21.6 °F 14.0 °F 6.8 °F 53% 30.37 in 10.0 mi East 5.8 mph - N/A   Clear
9:35 PM 21.6 °F 13.0 °F 7.0 °F 54% 30.37 in 10.0 mi East 6.9 mph - N/A   Clear
10:15 PM 21.7 °F 12.3 °F 7.7 °F 55% 30.34 in 10.0 mi East 8.1 mph - N/A   Clear
10:35 PM 21.9 °F 11.0 °F 7.2 °F 53% 30.34 in 10.0 mi East 10.4 mph - N/A   Clear
11:15 PM 21.7 °F 10.8 °F 6.6 °F 52% 30.33 in 10.0 mi East 10.4 mph - N/A   Clear
11:35 PM 21.6 °F 10.6 °F 7.5 °F 55% 30.33 in 10.0 mi East 10.4 mph - N/A   Clear
11:55 PM 21.6 °F 9.9 °F 7.5 °F 55% 30.34 in 10.0 mi ESE 11.5 mph - N/A   Clear